Theta_e
295 296 297 297 298 297 299 300 300 301 302 303 303 304 306 306 305 304 306 308 307 305 304 302 301 300 299 298 296 297 297 296 295 295 295 296 296 296 297 297 297 298 299 299 299 300 299 298 298 298 298 298 298 298 298 298 299 300 299 298 296 293 293 295 295 297 296 295 298 299 299 299 297 298 299 298 298 297 295 293 291 291 291 293 292
295 295 296 296 296 298 299 299 299 299 299 301 301 302 303 304 303 303 303 303 304 304 302 301 300 298 297 296 296 295 294 293 292 293 293 294 294 294 294 294 295 295 296 297 297 297 297 296 296 296 296 296 296 296 295 296 296 296 297 296 295 292 290 292 294 294 292 291 292 295 295 297 295 294 297 297 297 296 294 293 292 291 291 291 292
293 294 295 296 297 297 296 297 299 299 299 300 301 302 302 301 301 301 301 301 300 301 300 299 298 297 297 295 294 293 293 293 293 293 293 292 292 292 292 292 293 293 293 294 294 294 294 293 293 293 292 293 292 292 292 292 292 293 293 293 293 293 290 292 291 291 288 290 293 295 292 292 295 290 291 294 295 294 294 292 292 290 290 291 291
292 293 294 295 295 295 295 296 297 298 297 298 299 299 301 300 300 300 300 299 298 297 297 297 297 296 295 295 294 293 292 292 292 291 291 290 290 290 290 291 291 291 291 291 291 291 291 290 290 290 290 290 289 289 289 289 290 290 291 291 291 291 289 288 290 290 290 289 286 289 291 290 285 285 286 290 289 293 294 291 290 289 289 290 291
292 292 293 295 295 294 295 295 296 297 296 296 298 298 300 299 299 299 298 297 296 296 296 296 295 294 294 294 294 293 292 290 289 288 288 288 288 288 288 289 290 289 290 290 290 290 290 289 289 289 289 289 288 288 288 288 289 289 289 289 289 288 287 287 288 289 288 290 289 285 283 284 283 283 284 287 287 289 287 290 289 289 289 289 291
293 293 293 294 294 294 294 295 296 295 294 295 296 298 298 298 299 298 297 296 296 296 296 296 295 294 293 292 290 288 287 287 286 285 286 286 286 287 288 288 288 288 288 289 289 289 289 289 288 288 288 288 288 288 287 288 288 288 288 287 288 288 286 285 285 287 288 288 289 288 288 283 282 284 281 278 284 287 285 287 287 288 287 288 291
293 293 293 293 293 293 293 294 294 294 293 294 296 297 298 297 298 297 296 296 298 297 297 296 295 295 294 292 290 288 286 286 286 286 286 286 286 286 286 287 287 287 287 287 287 288 287 287 287 287 287 287 287 287 287 286 287 287 288 287 286 288 286 284 284 285 285 286 287 287 287 288 288 283 280 281 277 280 283 284 285 286 286 287 288
292 292 293 293 293 293 293 294 293 292 293 294 295 296 296 296 295 295 295 295 295 295 296 296 293 292 290 289 289 287 287 286 286 286 286 286 285 285 285 286 286 287 287 286 287 287 286 286 286 286 286 286 286 286 286 285 286 286 287 287 286 286 286 286 285 285 284 285 287 287 286 285 285 286 285 282 281 278 279 282 283 285 285 286 286
293 292 292 292 293 293 293 292 292 292 293 293 293 293 293 294 294 294 293 293 293 293 294 294 293 291 290 289 287 287 287 287 287 287 286 285 284 284 284 284 285 286 286 286 286 286 286 285 285 284 285 285 285 285 285 286 285 285 285 285 285 286 286 286 286 286 285 285 285 285 285 284 283 283 282 282 280 277 277 279 280 282 283 285 286
292 292 292 292 293 293 292 291 291 291 292 293 292 292 292 292 292 292 291 291 292 292 292 292 291 291 289 288 287 286 287 286 286 285 285 284 284 283 283 283 283 284 285 285 285 285 285 285 285 284 284 284 285 284 284 284 284 284 284 285 285 284 284 285 284 284 285 284 283 283 282 281 280 280 279 279 279 280 278 278 279 279 279 281 285
291 291 292 292 292 291 290 290 290 290 289 290 290 291 291 291 291 290 290 290 291 291 291 291 291 290 289 287 287 286 286 286 285 285 284 284 283 283 283 283 283 283 284 285 285 285 285 285 284 284 284 284 284 283 283 283 284 283 284 283 283 283 282 282 283 283 283 282 282 281 281 281 281 279 278 279 279 277 277 278 279 280 280 280 281
291 291 291 290 289 289 289 289 288 289 289 289 289 290 290 290 289 289 289 289 290 291 291 291 290 289 289 288 287 287 287 286 285 284 284 283 283 283 283 283 283 284 283 283 283 284 284 284 284 283 283 283 283 283 284 284 284 283 283 282 282 282 282 282 281 281 281 281 280 281 280 282 282 281 281 281 280 279 279 277 277 279 278 279 282
290 290 290 289 288 288 288 288 288 288 288 289 289 289 289 289 288 288 288 289 290 290 290 290 290 289 289 288 288 288 287 286 285 285 284 283 283 283 282 282 282 282 282 282 283 283 283 283 283 282 283 284 283 283 283 283 282 282 282 281 281 281 281 280 280 279 280 279 279 280 280 281 281 281 282 281 281 280 279 276 277 278 277 278 279
290 289 289 288 288 288 288 288 288 288 288 288 288 288 288 289 288 288 288 289 289 289 289 289 289 289 289 288 288 288 287 286 286 285 284 284 284 283 282 282 282 282 282 282 283 283 283 283 283 283 283 282 282 282 282 282 281 281 280 279 279 279 279 279 279 279 279 279 279 278 279 280 280 281 279 281 280 279 277 277 277 277 277 277 278
289 289 289 289 289 289 288 288 288 288 288 288 288 288 288 288 288 288 287 288 288 288 288 288 289 289 289 288 288 288 287 286 286 286 285 284 284 283 283 282 282 282 282 283 283 283 283 283 282 282 282 281 281 281 282 280 280 280 280 279 279 279 278 279 278 279 280 278 278 278 279 279 279 279 279 280 280 280 279 278 277 275 275 276 275
289 289 289 289 289 289 288 288 288 287 287 287 287 287 287 288 287 287 287 287 288 288 288 288 288 288 288 287 287 287 287 286 286 286 285 284 284 283 283 282 282 282 283 283 283 282 282 281 281 281 281 280 280 279 279 279 279 279 278 278 279 281 279 279 279 278 279 279 279 279 278 278 278 279 279 279 279 280 280 279 278 276 275 273 275
289 289 289 289 289 289 288 288 287 287 286 286 287 287 288 288 287 287 287 287 288 288 288 287 287 287 287 286 286 286 285 285 285 284 284 284 283 283 283 282 282 282 283 282 282 281 281 280 280 280 279 280 280 280 280 280 280 278 279 278 277 278 279 279 279 278 278 278 278 278 278 278 278 278 278 279 279 278 279 278 278 277 277 274 272
290 290 289 289 289 288 288 287 287 287 286 286 287 288 288 288 287 287 287 287 287 287 287 287 286 286 285 285 285 285 285 284 285 284 284 284 283 283 282 282 281 282 282 282 280 280 280 281 279 279 279 279 279 279 279 279 279 278 278 278 277 277 277 277 278 277 278 277 278 277 277 278 277 277 278 278 278 278 278 278 278 278 277 275 275
290 289 289 289 289 289 288 287 287 286 287 287 288 288 288 287 287 287 286 286 286 286 285 286 285 286 286 284 284 284 284 284 283 284 283 282 281 281 281 281 281 281 281 280 279 279 279 279 278 278 278 278 278 278 278 279 277 277 277 277 277 277 276 276 277 277 278 278 277 276 276 276 276 277 277 277 277 277 278 277 277 278 278 276 276
290 290 290 289 289 289 288 287 286 286 286 287 287 287 287 287 286 286 285 284 284 284 284 284 284 285 284 283 282 283 283 282 282 282 281 281 281 281 280 280 280 280 280 279 279 278 278 278 278 278 277 277 277 278 278 278 276 276 276 276 277 276 275 275 275 276 278 278 276 276 275 276 276 276 276 276 276 277 277 278 277 277 276 276 276
290 290 290 290 289 289 288 287 286 285 286 286 287 286 286 286 285 284 284 283 283 283 283 283 283 283 283 282 282 282 282 282 282 281 281 281 281 281 280 280 280 280 279 279 278 278 277 277 277 277 277 277 277 276 277 276 276 275 275 276 276 275 275 274 275 274 275 276 276 275 275 275 276 276 276 276 276 276 276 277 277 277 277 276 275
291 291 291 290 289 288 287 286 285 285 285 285 286 285 284 284 284 283 283 283 283 282 283 283 282 283 282 282 281 281 282 282 281 281 281 280 280 280 280 280 279 279 279 279 278 278 277 277 277 277 276 276 276 276 275 275 275 275 275 278 277 274 274 274 274 274 274 276 275 274 275 274 275 276 275 274 275 275 275 275 275 276 274 275 275
291 291 291 290 289 288 287 286 285 284 284 284 284 284 284 283 283 283 283 282 282 283 283 282 282 282 281 281 281 281 281 280 280 280 280 280 280 280 280 279 279 279 278 279 278 278 277 277 276 277 276 275 275 275 275 274 274 274 274 274 275 274 274 274 273 273 274 274 274 274 273 274 276 274 274 274 274 274 274 274 274 274 274 274 274
291 290 290 290 289 287 286 285 284 284 284 284 284 283 283 283 283 283 282 282 282 282 282 282 281 281 280 280 280 280 280 279 279 279 279 279 279 280 280 279 278 278 278 278 277 277 277 276 276 275 275 274 275 274 274 274 275 274 274 274 274 273 273 273 274 273 273 274 273 273 273 273 273 273 273 273 273 273 273 273 273 273 273 273 274
290 290 290 288 287 286 286 285 284 284 284 283 283 283 283 283 283 283 282 282 282 282 282 281 280 280 279 279 279 279 279 278 278 278 278 278 278 279 279 278 278 277 277 277 276 275 275 276 276 275 275 274 274 274 274 274 274 274 274 274 273 273 273 273 273 273 277 274 273 273 273 273 273 272 272 272 273 272 273 273 273 273 273 274 274
291 290 288 288 288 287 285 285 285 284 284 283 283 283 283 283 283 282 282 282 282 281 281 281 280 279 279 278 278 278 278 278 278 278 279 279 280 279 279 278 278 278 276 276 275 275 275 274 274 274 274 273 273 273 274 274 274 274 274 273 273 273 273 274 273 274 274 274 274 273 273 273 273 272 273 272 272 272 272 272 272 272 273 273 273
290 290 289 288 286 286 286 285 285 284 283 283 283 283 283 283 282 282 282 282 281 281 281 280 279 279 279 278 278 278 278 278 278 279 280 280 279 279 278 278 278 277 276 275 274 274 274 274 274 274 274 274 273 274 273 274 274 273 273 272 272 273 273 273 274 274 274 273 273 273 273 273 273 273 272 272 272 272 271 271 272 272 272 272 272
289 288 288 288 288 287 286 285 285 284 284 283 283 283 283 283 283 282 282 282 282 281 280 280 279 279 279 279 278 278 278 279 279 279 280 280 279 279 278 278 277 276 275 275 275 275 274 274 274 274 273 273 273 273 273 273 273 272 272 272 273 273 273 274 274 274 274 273 273 273 273 273 273 273 273 273 273 272 272 272 272 272 272 272 271
289 289 289 288 287 287 286 285 285 284 283 283 283 283 283 282 282 282 282 281 281 280 280 280 279 279 279 278 278 278 279 279 280 280 280 280 279 279 278 278 277 277 277 276 276 275 274 273 273 273 273 273 273 273 273 272 272 273 273 274 274 274 274 273 273 273 273 273 273 273 274 273 274 277 279 278 278 278 273 271 272 272 270 271 270
290 290 290 290 289 287 287 286 285 285 284 283 283 283 283 283 282 282 282 281 281 280 280 279 279 279 279 279 279 280 280 280 280 280 280 280 279 278 277 277 277 277 277 276 276 274 273 273 273 272 272 273 273 273 276 278 277 273 272 274 274 273 273 273 273 272 273 273 274 274 275 278 278 279 279 279 279 279 279 277 275 273 271 270 270
290 290 290 290 288 287 287 287 287 286 285 284 284 283 283 283 283 282 282 281 281 280 280 279 279 279 279 279 279 279 280 280 280 281 280 279 278 278 277 277 277 276 276 275 275 274 273 273 273 272 272 273 273 273 277 278 278 279 275 273 272 272 273 272 272 272 272 273 273 274 273 275 277 278 276 278 278 278 278 278 278 278 278 275 273
290 290 289 288 287 288 288 288 288 286 285 284 284 284 283 283 283 282 282 281 281 280 280 279 279 279 279 279 280 280 281 281 281 281 280 279 278 278 277 277 276 276 275 274 273 272 272 272 272 272 271 272 272 276 278 278 279 279 279 275 272 272 272 273 272 272 272 272 272 273 273 274 273 273 272 272 274 276 277 277 277 277 277 278 278
289 288 288 288 288 289 289 289 288 286 285 285 285 283 283 283 283 282 282 281 280 280 280 279 279 279 279 280 280 281 281 281 281 281 280 279 278 278 277 276 275 275 273 272 272 272 271 271 271 271 270 271 271 277 278 279 279 279 279 278 273 275 274 273 273 272 272 272 272 272 272 273 272 275 274 272 271 271 275 276 276 276 276 276 276
288 288 288 289 288 288 288 288 288 287 286 285 284 284 284 283 283 282 281 281 280 280 280 280 280 280 280 280 280 280 281 281 281 280 279 278 277 276 276 274 273 272 272 271 270 271 271 271 271 270 270 270 270 275 278 279 279 279 279 278 274 275 274 274 274 273 273 272 272 272 271 270 270 270 271 271 271 270 270 270 270 269 270 273 275
288 288 288 288 287 286 286 286 287 286 285 285 284 284 283 282 282 282 282 281 281 280 280 280 280 280 280 280 280 280 280 280 280 279 278 277 276 274 274 273 272 272 272 271 271 270 270 270 269 269 269 269 270 275 277 278 278 278 278 278 275 275 274 274 274 274 274 273 272 271 270 270 270 270 271 272 271 271 269 270 271 271 272 273 273
288 288 287 287 286 287 286 286 286 286 286 285 284 283 283 282 282 282 282 281 281 280 280 280 280 279 280 280 280 280 279 279 278 277 276 276 275 274 273 273 272 271 269 269 268 269 269 269 269 268 268 268 268 276 276 277 278 278 278 275 274 273 273 273 273 273 273 272 270 270 269 269 269 269 272 275 275 273 272 272 272 273 273 273 274
288 287 287 286 286 286 286 285 284 285 285 285 284 284 283 282 282 282 281 281 281 280 280 280 280 280 280 280 280 280 279 279 278 277 276 276 275 273 273 272 271 271 271 270 270 269 269 268 268 267 267 267 265 272 276 277 277 278 276 272 273 272 272 271 271 270 270 270 270 270 270 269 269 269 273 275 276 276 273 273 273 272 273 273 274
287 286 287 286 285 285 284 285 284 284 285 284 284 284 283 282 282 281 281 280 280 281 280 280 280 280 280 280 280 280 279 279 278 277 277 277 275 274 273 272 272 271 271 270 269 268 267 267 267 267 267 265 265 270 274 275 276 277 276 272 271 270 269 270 270 271 271 270 270 273 273 272 271 271 274 276 277 276 274 274 274 273 273 273 274
288 288 287 286 285 285 284 284 284 283 283 284 284 284 283 282 281 281 281 281 281 281 280 280 281 281 281 280 280 280 280 279 279 278 277 276 275 274 274 272 271 271 270 268 268 267 266 265 265 266 269 267 264 268 273 275 276 276 275 273 271 270 269 269 269 269 270 270 271 272 273 274 273 273 276 277 278 277 275 275 274 274 273 272 274
286 286 286 285 283 283 282 283 283 283 282 283 284 284 283 282 281 281 281 281 281 281 281 281 281 280 280 280 280 280 280 279 279 278 277 276 275 273 272 271 270 270 269 268 267 267 266 265 264 264 265 266 264 263 267 273 274 276 277 272 270 269 268 268 269 269 269 270 270 269 272 275 276 277 277 278 278 278 276 275 275 274 273 272 274
285 284 285 283 283 284 284 283 283 282 282 282 283 283 282 282 281 281 281 282 282 281 280 280 280 279 279 280 280 280 280 279 279 278 277 275 274 274 271 270 269 268 267 266 266 265 265 264 264 264 263 263 264 263 265 272 274 275 276 275 271 270 270 270 269 269 269 269 269 270 271 274 276 277 277 277 278 278 278 277 275 273 273 274 276
283 284 283 283 282 282 282 281 281 281 282 282 282 282 281 280 280 280 282 282 279 280 280 279 279 280 279 279 279 279 279 279 277 276 274 273 272 272 271 269 268 267 267 266 264 264 264 263 263 263 263 262 264 267 263 269 273 275 276 277 273 271 271 270 269 269 269 269 270 271 272 274 276 276 277 277 278 279 279 275 273 276 277 276 274
282 282 282 283 282 282 282 281 281 280 281 281 281 280 279 278 279 281 280 279 280 279 279 279 279 279 278 278 278 277 277 277 275 275 274 273 270 269 268 268 267 266 266 265 264 263 263 263 262 263 263 263 263 265 270 267 271 274 276 276 276 274 275 273 270 269 270 270 272 273 273 275 276 276 277 278 278 278 275 273 275 276 275 275 273
281 282 282 282 282 282 281 280 280 279 279 280 280 279 278 278 280 281 277 276 276 277 278 278 278 277 277 276 275 274 274 274 274 273 272 271 269 268 267 267 266 266 265 264 263 263 262 262 263 263 263 263 263 263 267 271 270 273 275 276 276 277 277 273 272 272 272 272 272 272 273 275 276 276 278 277 276 275 273 274 274 274 274 272 266
281 281 282 282 282 281 280 279 278 277 277 278 277 279 278 278 280 278 278 278 277 276 277 277 276 275 274 271 269 271 270 269 270 272 271 270 267 266 266 264 265 265 265 265 264 263 263 263 263 263 264 264 263 263 263 267 272 273 274 275 276 276 276 277 274 273 273 273 274 275 276 276 277 277 276 275 273 272 272 273 273 273 271 264 262
279 280 280 279 279 279 278 277 276 275 276 276 276 277 278 280 278 275 275 275 275 275 275 276 274 273 271 268 269 266 265 266 267 269 271 270 269 267 267 265 265 265 265 265 265 264 264 264 264 264 264 264 264 263 263 264 268 271 273 274 275 276 276 276 276 274 275 276 276 276 277 277 276 274 272 269 267 266 271 272 271 270 262 261 260
280 280 280 278 277 278 278 276 276 274 276 275 275 276 279 277 275 276 275 273 271 274 274 272 272 271 268 268 269 268 265 264 264 265 266 267 267 267 266 265 265 265 265 265 265 265 265 265 264 264 264 264 263 263 263 264 264 265 267 269 271 272 275 275 274 273 274 273 274 274 274 275 274 274 273 271 270 269 266 265 263 262 260 260 261
278 278 279 277 278 278 276 276 278 277 276 275 275 276 276 275 272 271 270 271 271 272 272 272 270 268 268 267 268 267 266 265 264 265 266 266 266 266 266 267 266 266 265 265 265 265 266 266 265 265 264 263 263 263 264 264 265 265 266 267 267 268 269 270 271 270 270 271 272 273 272 267 264 262 261 260 260 260 262 262 261 260 260 261 264
278 277 278 279 277 277 277 277 278 276 275 274 274 273 272 273 270 266 268 270 270 270 269 269 267 266 266 265 265 264 265 265 263 263 264 265 266 266 267 267 265 265 267 267 266 267 267 266 266 265 264 264 263 263 264 269 267 270 267 267 267 268 269 270 272 273 271 270 269 268 265 264 262 261 260 259 258 257 259 259 258 258 258 258 257
276 276 275 275 274 275 275 276 275 275 274 273 272 271 270 271 268 266 268 269 268 267 266 266 265 265 263 263 263 263 262 263 262 262 261 262 267 271 268 265 264 270 273 273 272 268 267 266 266 266 267 266 265 266 270 273 273 273 274 274 273 273 274 272 273 275 274 268 267 265 264 262 260 258 257 258 258 257 258 258 257 263 261 258 259
276 275 273 274 274 274 274 274 274 274 273 272 270 269 268 268 269 268 268 269 268 269 267 267 267 266 267 265 264 264 264 263 263 262 262 262 262 264 272 273 272 271 272 274 274 274 274 273 268 265 268 273 272 272 273 274 274 275 275 275 275 276 276 276 276 274 270 267 265 264 262 259 259 258 258 259 258 258 258 258 258 257 257 259 260
Wind_Speed
6 6 5 5 4 3 3 4 3 2 3 2 3 3 4 4 4 5 3 4 4 5 5 5 6 7 7 8 8 6 7 7 8 7 8 7 8 8 8 8 8 9 8 8 8 8 8 7 7 7 6 7 8 7 7 7 8 6 6 7 7 8 9 9 10 4 7 6 7 7 7 5 8 6 7 7 7 7 7 7 7 7 7 6 7
7 6 6 5 5 4 3 3 5 4 3 3 3 3 4 4 4 4 5 6 5 6 6 6 5 4 6 6 7 6 6 7 7 7 7 7 8 8 8 8 8 9 8 8 8 7 7 7 7 7 7 7 7 7 8 8 10 9 5 5 7 8 8 8 9 6 6 3 2 3 4 5 7 7 6 5 6 5 6 6 6 7 7 6 5
7 7 6 6 6 5 4 3 4 5 3 3 3 3 3 4 4 5 5 5 5 5 6 6 6 5 6 6 7 7 6 6 7 6 6 8 9 9 8 8 8 9 9 9 8 8 8 8 8 7 8 7 8 9 9 10 9 9 8 5 5 5 6 7 9 7 3 3 2 4 2 2 2 6 5 5 4 5 5 6 6 7 7 6 4
10 10 9 8 6 5 5 4 5 5 3 3 3 3 3 4 4 5 6 5 6 6 8 8 9 8 7 8 7 8 7 7 8 7 8 9 10 8 8 8 8 9 9 9 8 9 9 9 8 8 8 8 8 9 10 10 10 10 10 10 5 4 5 8 8 10 8 6 5 1 2 3 3 4 5 2 4 4 6 5 5 7 7 7 4
11 10 9 9 9 7 6 5 5 5 4 3 2 3 3 4 5 6 6 6 6 7 8 8 10 9 9 9 8 8 6 6 7 7 7 7 8 9 8 8 9 9 9 9 9 9 8 8 8 8 8 8 8 9 9 8 8 7 8 8 8 5 6 4 7 9 10 8 3 4 5 5 1 3 4 3 6 4 6 4 5 7 6 7 5
11 11 10 10 9 8 6 6 6 5 5 3 1 3 4 5 6 6 6 6 7 7 7 8 8 9 7 7 7 6 7 6 7 7 7 8 8 4 8 8 8 9 8 8 8 7 8 8 8 8 8 8 8 7 7 8 9 9 8 7 9 8 5 7 7 7 7 9 8 5 2 3 0 4 5 3 6 1 5 4 4 5 4 5 4
8 8 9 10 9 9 7 6 6 7 5 3 2 3 4 5 5 5 6 6 6 5 6 7 7 6 5 6 6 7 9 6 5 6 7 6 6 8 7 7 7 9 8 8 8 8 7 8 8 8 8 8 7 8 9 8 7 7 7 8 7 7 7 8 7 6 5 7 7 6 6 3 1 2 1 2 4 5 4 4 3 5 4 4 4
11 11 10 8 10 10 10 8 7 7 6 4 3 3 4 5 6 6 5 5 4 4 4 4 6 7 9 9 8 7 7 9 7 7 6 6 8 7 7 7 7 7 8 8 8 8 8 8 8 8 8 7 7 7 7 6 7 7 7 7 7 7 7 6 5 6 6 5 6 7 7 7 4 3 3 2 3 5 6 5 3 6 6 5 4
10 11 11 11 11 10 9 8 7 7 6 5 4 4 4 5 6 6 6 5 4 4 5 7 7 8 9 9 9 6 8 8 7 6 7 6 9 6 7 7 7 8 8 8 7 7 7 7 7 8 8 7 6 7 7 7 7 7 8 8 7 7 7 6 6 5 6 4 5 6 5 6 5 4 4 6 1 2 5 3 6 3 3 5 6
7 9 9 9 8 8 8 8 8 6 5 4 4 4 4 5 6 7 6 5 5 5 7 7 8 9 9 9 11 10 8 8 7 8 7 6 8 7 6 6 6 7 7 7 7 7 7 7 8 8 7 6 6 6 5 7 6 7 7 7 7 7 6 6 5 4 4 4 4 3 4 4 5 4 3 5 3 1 3 7 5 9 8 4 6
8 8 8 8 6 9 9 9 7 6 4 5 4 4 4 5 6 7 6 5 5 6 6 7 7 8 9 9 11 12 10 10 9 8 7 6 8 6 6 6 6 7 6 6 6 5 6 6 7 6 6 6 7 6 7 6 7 7 6 6 7 7 6 6 6 5 5 5 5 6 4 3 1 1 3 3 1 2 4 5 6 5 6 10 3
9 9 10 9 9 8 8 9 8 7 6 5 5 4 5 5 7 8 6 6 6 6 7 7 8 8 7 9 9 10 11 9 10 10 8 8 7 8 6 7 7 6 6 6 6 5 6 6 6 6 7 7 7 6 6 6 5 5 5 6 6 5 5 6 5 5 6 5 5 5 4 3 4 4 3 3 4 4 3 6 6 5 4 4 6
10 10 10 10 10 11 10 9 9 8 8 7 6 6 5 6 7 8 7 6 7 6 7 8 8 8 8 8 8 8 8 9 9 9 7 8 8 8 7 7 6 7 6 7 5 5 5 7 6 6 6 6 5 4 4 4 4 5 5 4 5 4 4 4 5 4 4 4 4 4 4 5 4 3 5 3 5 3 4 5 4 4 7 7 5
9 9 9 10 10 10 9 10 9 8 8 8 7 6 5 6 7 8 7 6 6 7 7 8 8 7 7 7 7 8 8 8 8 9 7 7 7 7 7 7 7 6 6 5 4 4 5 5 5 5 4 4 4 4 4 4 4 5 4 5 4 4 4 4 4 3 3 4 3 5 4 5 4 3 4 4 4 4 4 4 6 4 4 8 3
8 9 10 11 11 10 10 9 9 8 8 8 7 6 6 6 7 8 8 6 7 7 7 8 8 7 6 6 7 7 8 8 7 7 8 8 7 8 7 7 7 6 6 5 5 5 5 5 5 5 5 5 4 4 4 4 4 4 4 4 3 3 4 4 3 3 3 4 4 4 5 5 3 3 4 4 3 4 3 4 4 9 5 3 4
9 9 9 9 10 10 9 9 8 8 8 7 7 6 7 7 7 7 8 8 8 8 7 8 8 7 6 8 8 8 7 7 7 6 6 7 8 8 8 7 7 7 6 5 4 5 5 5 5 5 4 4 4 4 4 3 2 4 3 3 2 1 0 1 1 2 1 1 1 1 3 4 4 2 3 4 4 4 4 4 4 3 5 9 6
9 10 10 11 9 8 8 9 8 8 8 8 8 7 7 8 9 9 8 7 8 8 8 7 8 8 7 7 8 8 9 9 9 8 8 7 7 7 8 7 7 6 6 5 5 5 5 5 5 5 4 4 3 3 1 0 0 3 4 4 3 3 1 2 1 1 2 2 2 1 2 4 4 2 3 3 3 4 3 3 4 3 3 4 6
8 7 8 9 10 10 9 7 8 8 8 8 8 7 6 7 8 10 10 10 8 8 8 8 8 7 7 8 7 8 8 8 8 9 8 8 7 7 7 7 7 6 6 5 5 5 5 5 5 4 3 3 3 3 2 1 1 3 4 4 3 2 3 2 1 2 1 2 2 3 3 3 3 3 3 4 4 3 3 3 3 4 3 4 3
10 10 10 11 11 11 10 10 8 7 7 7 7 7 6 6 7 7 9 8 8 7 6 7 6 6 6 7 8 8 7 7 7 7 7 8 8 7 7 7 6 5 6 6 5 5 4 4 4 4 4 4 3 2 1 1 3 4 4 4 2 1 2 2 2 2 1 1 2 2 3 2 2 2 3 4 4 4 5 3 4 3 4 3 5
11 11 11 11 11 11 11 11 11 10 10 8 8 6 7 7 7 7 6 6 6 7 7 8 7 7 7 7 6 7 7 7 7 8 8 7 7 7 7 7 6 5 5 5 4 4 4 4 4 4 4 4 4 2 2 2 4 3 4 3 1 2 2 2 2 2 1 1 1 2 3 3 3 2 3 4 4 4 4 4 4 4 4 3 4
12 12 12 12 12 11 10 9 8 7 7 7 8 8 7 6 7 7 9 8 8 7 7 7 7 7 8 9 8 8 8 7 7 6 7 7 7 7 6 6 6 5 5 4 4 4 4 4 4 4 4 4 4 3 2 3 3 3 3 3 1 2 2 2 2 3 3 2 2 2 3 4 3 2 3 3 4 4 4 4 4 4 5 3 3
12 12 12 12 11 10 9 8 7 8 9 9 8 7 7 7 7 8 8 7 8 8 7 7 6 8 8 8 8 7 7 7 7 7 7 7 7 7 6 6 6 5 5 5 5 4 4 4 4 4 4 4 4 4 3 3 3 3 2 2 1 1 2 2 2 2 3 3 2 3 4 4 3 2 3 3 4 4 4 4 3 3 4 5 4
14 13 13 12 11 11 11 12 11 11 9 9 8 8 8 7 7 7 8 8 7 8 7 7 8 8 8 7 8 7 7 7 8 7 7 7 6 6 6 7 6 5 4 5 5 5 5 5 5 4 4 4 4 3 2 3 3 3 1 1 2 1 1 1 2 2 2 2 2 3 4 4 3 3 4 4 3 4 4 3 4 3 4 4 4
9 8 8 9 9 9 10 11 11 11 11 11 9 7 7 7 7 8 9 8 8 7 8 8 8 8 8 8 8 8 8 7 8 7 8 6 7 6 6 5 5 4 6 5 5 5 5 5 5 5 4 4 4 3 3 3 2 1 1 1 1 1 1 1 1 2 2 2 2 3 3 3 3 3 4 3 4 3 3 4 4 4 3 5 4
11 12 12 10 10 12 13 12 11 10 9 8 9 9 9 8 7 8 8 8 8 7 8 8 8 9 9 9 8 8 8 8 7 7 8 7 7 7 6 6 7 6 5 6 4 4 5 5 6 5 4 4 4 3 2 1 1 0 0 1 2 1 1 2 2 2 3 2 2 3 3 3 3 4 4 4 4 4 4 3 4 5 5 5 4
13 12 10 14 15 11 9 10 10 10 10 9 9 9 8 8 8 7 9 9 8 7 8 9 9 10 9 9 9 8 8 9 8 8 8 8 8 7 6 6 7 8 6 5 6 4 5 5 5 5 4 4 3 2 1 1 0 0 0 1 1 2 2 2 3 3 3 3 3 3 3 3 4 4 5 4 4 4 4 4 4 5 5 4 4
15 15 13 9 8 13 13 11 11 10 10 10 10 10 9 9 8 8 8 9 9 9 9 9 9 9 9 9 9 9 9 8 8 9 8 8 7 7 7 7 7 7 8 7 5 5 4 5 5 4 4 4 2 1 1 1 1 1 2 3 2 2 2 2 2 3 3 3 3 3 4 4 4 4 5 5 5 5 3 3 3 4 5 5 6
7 8 11 16 16 12 12 13 12 11 10 9 9 9 10 10 11 9 9 9 8 9 9 9 9 9 9 10 9 8 8 8 7 8 8 8 8 8 7 7 7 7 7 7 7 7 5 4 5 4 4 3 2 1 1 2 2 2 2 3 2 3 3 2 2 3 3 3 3 4 4 4 4 5 5 5 5 5 4 5 4 4 5 6 6
11 12 13 13 13 14 14 13 12 10 12 12 11 10 9 8 8 9 9 10 9 10 10 10 9 10 10 9 8 7 7 8 7 8 8 8 8 8 8 7 7 7 6 7 7 6 7 5 4 4 4 4 4 2 2 2 1 1 0 1 1 1 2 2 3 3 3 3 4 4 4 4 5 7 10 9 8 7 5 5 5 4 4 5 5
13 13 14 14 14 11 12 12 11 14 13 12 12 12 12 12 12 11 10 9 10 10 11 10 10 10 8 9 9 8 9 9 8 9 9 9 9 8 8 8 7 7 7 7 7 5 6 6 6 5 4 4 3 2 3 5 4 3 2 2 1 2 2 3 3 3 3 3 4 4 5 9 12 13 13 14 14 14 14 10 7 4 4 5 6
10 10 11 10 10 10 10 12 14 15 15 14 12 11 10 11 10 11 11 10 10 11 10 10 11 9 9 9 9 9 9 10 9 9 7 8 9 8 7 7 7 8 8 7 7 7 5 5 6 5 5 5 4 3 7 8 8 9 5 3 2 2 2 3 3 4 5 4 4 5 5 6 7 8 7 11 14 14 13 14 15 15 13 9 7
10 11 9 9 10 12 14 15 16 14 14 12 12 12 12 13 12 12 11 9 10 10 11 10 10 9 9 10 10 10 10 10 9 9 9 8 8 8 7 7 7 7 7 6 6 6 6 5 5 5 5 5 4 7 10 9 9 9 7 4 2 2 2 3 3 4 4 4 5 4 4 3 4 4 4 4 6 11 14 15 15 15 15 16 15
11 11 11 11 12 14 15 13 10 12 13 14 13 11 13 12 12 11 9 10 11 10 10 10 10 10 10 10 10 11 10 9 9 9 9 8 9 8 8 8 8 6 6 6 7 7 6 5 6 6 5 4 4 8 10 10 10 9 9 6 2 2 2 3 4 4 4 4 4 5 5 4 3 7 5 4 4 5 9 14 14 14 12 13 13
9 9 10 10 8 8 8 10 10 10 10 9 10 12 10 9 10 9 11 10 11 10 10 11 10 11 10 11 11 10 10 10 9 9 9 9 9 10 8 6 6 6 6 5 5 6 6 6 6 6 5 4 4 7 10 10 10 9 8 6 2 4 5 5 5 5 4 4 4 5 5 4 3 3 4 5 4 5 5 4 4 4 5 10 16
10 10 9 9 9 8 7 7 8 9 9 10 10 9 8 9 10 11 11 11 11 11 11 11 11 10 10 10 11 10 10 9 9 9 9 9 10 8 7 7 8 8 8 9 8 7 6 6 5 5 6 5 5 8 10 10 9 9 8 7 3 4 5 6 6 6 6 5 4 4 4 5 4 4 4 6 6 6 5 5 6 7 9 10 10
11 12 10 10 10 11 10 9 6 7 8 9 10 8 10 10 9 11 10 10 11 11 12 10 9 9 11 11 10 10 10 9 9 9 10 10 9 10 10 7 7 5 4 4 4 4 6 7 6 5 5 6 4 9 9 9 10 9 9 3 3 5 6 6 6 7 6 4 3 4 4 5 4 4 7 13 11 8 6 7 9 10 10 10 10
6 8 9 7 7 7 7 6 6 8 9 9 8 9 9 9 10 10 10 10 10 11 11 10 10 10 10 10 10 10 10 10 10 11 11 11 10 9 7 6 7 7 7 7 8 7 6 6 6 6 6 5 4 7 9 10 10 10 7 2 4 4 5 5 5 4 4 5 5 4 5 5 5 4 9 13 14 13 8 9 11 11 10 10 11
7 5 6 6 5 5 5 8 7 7 7 7 8 9 9 9 9 9 10 9 10 12 10 10 10 10 10 10 11 11 11 11 10 12 12 11 9 7 8 8 10 9 9 9 7 6 5 6 7 7 7 6 5 6 10 9 10 10 8 4 4 3 4 5 5 6 5 4 5 12 10 7 7 6 12 14 14 12 10 9 9 11 13 13 11
8 10 9 7 7 7 7 6 7 7 6 8 8 9 9 9 8 9 9 10 11 10 10 11 12 12 11 10 9 10 11 11 12 12 11 11 11 11 9 8 8 7 7 6 6 7 6 5 5 6 7 7 5 6 9 9 10 10 8 4 5 4 5 5 4 5 5 4 5 7 12 11 9 10 15 14 16 12 7 8 9 11 13 12 8
6 5 7 8 8 8 6 8 8 8 7 8 8 9 9 9 8 8 9 11 11 12 13 11 8 8 8 9 9 10 11 11 13 11 9 10 7 7 8 9 7 7 7 6 6 7 7 6 5 5 6 5 5 5 6 12 11 11 12 6 4 5 6 6 6 5 5 4 5 5 8 12 14 14 14 14 13 15 10 9 10 9 7 9 8
8 8 8 8 6 8 10 9 8 8 7 7 8 8 8 7 8 8 10 12 11 8 7 7 7 7 7 9 8 10 12 11 10 10 9 7 8 9 8 8 8 7 6 6 7 6 6 6 5 5 5 5 5 5 7 12 12 13 14 12 6 7 6 6 5 6 5 5 5 6 6 11 13 13 13 14 15 16 16 9 5 6 9 14 17
5 7 8 7 6 5 5 5 5 8 7 7 8 8 7 7 8 10 13 9 5 6 6 6 7 8 8 8 9 8 9 10 7 8 8 8 6 7 8 8 7 7 8 8 6 5 6 6 4 5 5 6 7 10 7 11 14 15 14 17 8 8 8 6 6 6 6 6 7 7 6 8 12 13 14 15 16 16 17 8 8 16 20 19 13
7 5 4 8 7 7 7 7 6 7 6 6 8 8 7 7 9 13 8 5 6 5 6 7 7 7 8 8 8 8 8 7 8 9 9 9 7 7 7 8 8 8 8 8 7 6 6 6 5 6 6 6 7 8 13 10 13 15 16 16 17 12 14 9 7 7 8 8 7 6 6 13 14 14 14 16 15 15 11 7 16 17 16 17 12
4 6 7 6 7 6 7 5 6 6 6 7 9 8 7 8 12 8 4 5 5 5 6 6 7 6 6 7 7 7 7 6 8 8 7 8 8 7 7 8 8 8 8 8 6 7 6 7 8 7 6 7 7 7 10 15 11 15 15 17 17 18 17 10 9 7 7 7 7 6 7 13 14 15 15 13 13 13 10 15 15 15 14 11 4
8 8 6 6 9 8 7 6 5 6 6 7 6 9 7 8 8 4 5 6 6 6 7 7 7 6 6 5 5 6 6 6 6 8 9 8 7 8 8 6 8 8 8 9 8 8 9 9 7 8 8 7 7 7 7 11 16 14 15 16 17 17 18 18 11 8 8 7 10 15 16 14 15 14 11 12 10 11 14 14 13 13 10 3 5
5 5 5 5 5 6 6 6 4 5 5 5 5 6 8 8 2 4 4 5 5 7 7 8 7 6 6 6 6 5 5 5 6 6 8 8 10 10 10 8 8 8 8 9 9 8 9 8 9 8 8 7 7 7 7 7 8 11 11 15 17 17 17 18 16 11 15 17 16 16 18 16 9 6 5 1 2 3 10 12 12 9 3 4 3
8 7 7 5 6 6 6 6 6 5 5 5 6 6 8 2 2 3 4 5 5 6 6 5 6 6 5 6 7 7 6 4 5 4 5 6 7 7 7 8 9 9 9 9 8 9 9 9 10 9 7 6 7 7 7 6 6 6 6 7 9 10 15 15 11 9 10 9 10 12 7 9 10 11 9 9 7 7 6 6 4 4 4 3 4
4 6 6 5 6 6 6 6 6 6 5 5 6 8 5 1 1 3 4 5 5 5 5 5 4 4 5 5 6 7 7 6 6 6 7 6 6 7 9 11 13 13 12 11 10 11 12 11 11 8 7 6 7 7 7 8 8 7 7 7 6 6 6 5 6 5 4 7 7 7 6 1 1 1 3 2 3 3 5 5 5 3 5 5 6
6 5 7 9 8 7 7 7 7 4 5 5 6 3 2 3 2 3 4 4 4 3 2 1 2 3 4 3 4 4 5 5 5 4 4 4 6 7 9 7 4 3 7 9 10 10 10 8 7 8 9 8 7 9 10 10 10 12 11 8 8 8 7 7 9 12 9 4 4 4 2 3 1 2 3 4 5 4 5 5 3 4 5 6 4
4 5 4 3 5 6 6 6 4 3 4 4 3 3 3 4 4 4 4 4 3 3 3 3 3 4 3 3 3 3 3 3 4 4 4 5 5 7 7 5 5 5 12 13 9 8 6 6 7 7 8 10 11 9 10 16 17 17 18 18 16 15 14 11 12 16 9 5 6 5 5 5 5 3 4 6 6 4 6 5 5 4 5 4 5
5 5 4 5 4 2 3 2 0 0 1 2 3 2 3 3 4 4 5 5 5 6 5 6 6 6 6 6 5 6 5 5 5 5 5 6 5 5 9 12 10 8 9 10 12 11 10 12 9 6 7 11 8 8 12 14 16 17 18 18 18 17 18 18 17 10 6 7 6 6 5 4 4 6 5 6 6 5 4 5 5 4 4 5 6
Wind_Direction
133 131 127 121 120 106 107 120 112 107 94 107 90 82 106 109 83 72 73 112 111 105 87 92 96 88 78 77 80 70 68 64 59 48 49 46 42 42 41 39 38 37 33 39 47 50 49 45 45 42 44 49 51 45 38 31 31 38 69 63 55 40 26 9 5 6 40 11 24 73 68 62 51 58 60 59 61 54 57 57 42 28 15 21 30
130 135 142 134 122 132 132 128 137 106 94 91 83 70 79 87 93 87 61 48 54 67 76 67 60 77 96 84 85 67 64 62 62 47 49 48 45 44 42 39 42 43 38 38 45 49 51 47 46 43 43 47 50 45 39 35 33 36 29 62 54 55 40 15 6 18 27 47 41 36 44 65 66 49 50 54 58 57 61 59 46 37 16 6 16
150 152 153 141 142 147 137 122 108 117 113 111 126 118 102 93 85 83 65 59 48 68 82 86 81 77 92 94 98 92 70 79 80 71 60 57 51 46 43 43 44 45 43 43 47 42 45 48 43 42 46 45 50 44 39 38 31 32 35 43 57 53 56 24 24 38 29 305 183 109 139 82 344 24 12 33 29 55 67 58 50 39 12 355 8
164 160 158 145 149 142 141 139 126 121 132 127 129 129 117 106 102 90 85 84 84 86 94 91 92 94 88 98 91 94 101 84 77 66 58 56 51 46 45 46 48 52 47 48 50 47 46 47 45 45 46 46 53 54 43 39 31 28 26 31 32 63 42 37 28 22 30 19 29 77 332 90 20 342 344 310 20 25 63 57 47 38 13 348 10
157 158 156 153 155 153 154 146 138 134 119 111 128 129 122 114 102 102 100 102 101 102 105 109 103 97 102 102 103 100 81 74 76 64 60 62 63 47 41 43 48 51 47 47 50 51 48 47 49 46 47 41 46 52 49 41 37 34 32 36 36 53 39 32 16 28 32 31 88 40 11 37 85 265 334 289 13 351 10 45 45 50 17 349 1
157 161 158 156 152 143 138 145 142 128 124 129 108 122 120 114 110 109 111 107 113 119 124 122 122 122 122 123 115 96 86 70 69 81 69 60 64 61 53 47 52 55 50 50 51 51 52 49 51 52 48 44 42 50 51 42 34 34 24 37 33 27 72 46 27 4 34 29 34 65 133 160 285 301 62 311 336 320 12 348 42 51 21 347 354
144 147 152 156 148 142 150 156 148 133 137 145 129 107 113 114 116 113 114 114 126 135 131 131 131 132 122 109 105 114 112 92 92 83 88 86 82 68 63 52 51 58 53 53 51 50 54 50 53 55 55 52 46 51 47 42 37 34 26 38 38 33 37 57 41 5 359 19 16 24 34 31 123 98 328 329 346 319 350 322 360 13 1 337 336
153 157 159 155 153 156 157 155 142 137 140 144 146 136 127 125 118 115 109 105 94 104 133 115 103 104 101 100 105 111 107 114 108 101 94 96 86 78 71 62 55 56 60 53 53 53 54 52 51 53 55 48 51 52 52 44 44 35 35 37 42 43 41 53 50 33 53 353 1 17 12 9 21 62 88 88 267 295 315 324 2 350 344 321 318
158 158 162 160 159 158 150 144 131 131 143 147 147 136 128 122 118 115 113 108 104 101 101 105 109 110 111 116 110 105 111 111 112 105 102 100 94 86 80 74 67 60 60 61 55 58 58 61 57 57 55 49 49 51 48 47 48 45 36 34 35 36 38 35 48 33 39 24 8 4 15 11 352 19 49 29 10 316 293 336 316 322 343 312 339
158 157 155 154 155 146 136 124 127 134 134 127 134 141 138 130 122 119 118 118 119 108 106 109 113 115 118 128 127 125 124 116 113 114 110 107 98 93 89 82 76 69 61 60 62 56 59 57 59 58 57 52 50 49 50 48 42 45 44 43 36 42 26 39 48 23 40 31 40 42 33 359 4 5 12 9 334 320 314 316 319 330 332 309 315
160 158 152 146 136 129 131 137 132 129 136 142 149 153 146 134 131 122 129 126 121 119 117 118 116 120 130 138 136 135 133 130 126 116 113 106 105 100 98 96 84 77 67 57 59 59 61 63 62 59 59 57 51 44 41 47 43 46 41 43 44 43 31 36 33 27 25 30 26 40 34 52 27 41 333 348 356 313 340 306 317 306 309 319 292
156 154 152 144 130 131 138 138 142 147 149 149 161 156 150 144 133 127 129 131 126 121 115 116 118 126 135 140 138 136 137 136 132 130 131 125 120 115 109 97 87 79 70 64 52 50 58 59 59 60 54 50 50 47 42 44 49 49 50 53 47 41 39 42 39 34 22 18 14 10 10 7 19 51 352 339 336 301 315 296 302 305 302 254 303
159 159 155 152 155 158 156 149 149 161 164 162 165 161 153 145 141 136 138 134 130 126 122 123 126 135 139 136 135 134 132 130 129 126 134 131 133 125 120 111 107 92 80 79 65 65 68 64 61 64 59 55 59 56 43 45 63 57 56 58 60 51 47 66 48 33 37 27 358 339 7 3 357 22 19 342 320 329 335 311 280 306 290 300 284
162 160 160 162 163 164 159 155 158 162 164 165 166 161 159 148 146 139 141 136 129 127 130 129 133 135 136 138 135 132 127 127 129 131 136 130 131 127 125 122 115 115 110 98 99 86 77 82 78 69 68 63 58 58 53 39 65 72 63 60 53 31 36 62 72 41 36 14 14 13 347 342 322 31 6 358 328 349 324 309 305 299 275 285 285
165 166 169 169 166 165 160 159 160 164 163 164 165 163 152 151 147 145 143 142 136 138 135 134 135 132 129 128 124 127 129 127 128 129 131 129 124 119 118 118 117 118 115 116 102 94 91 84 80 77 70 67 56 51 50 48 55 73 69 63 51 47 27 44 32 61 31 10 355 9 338 330 337 19 25 329 340 333 329 310 331 325 315 251 298
170 167 167 168 164 161 156 160 161 162 163 161 165 162 157 156 151 153 151 149 146 143 142 139 134 130 129 128 130 125 121 116 113 112 115 121 125 126 126 123 122 120 118 114 109 111 106 96 88 86 80 74 70 65 55 51 45 85 78 82 52 75 11 36 11 49 30 310 285 336 347 312 332 9 350 310 318 332 326 318 333 330 317 319 323
171 172 170 162 158 162 159 159 161 161 163 169 169 167 162 157 157 157 154 150 149 148 144 139 133 132 134 131 130 127 129 132 132 131 127 122 122 122 122 125 122 123 126 121 117 108 108 108 104 99 93 93 89 81 78 145 172 119 113 84 50 346 7 184 161 84 341 7 358 324 282 293 295 359 336 316 312 308 311 310 302 292 315 309 318
170 165 166 162 159 160 157 159 163 164 162 163 166 164 162 162 161 159 159 155 156 148 143 140 138 135 133 132 129 131 132 131 132 132 132 126 120 118 119 120 130 135 125 121 115 113 114 114 112 118 137 144 158 174 184 210 114 121 130 114 90 27 24 5 74 111 345 38 341 353 325 323 307 12 324 310 298 282 292 295 304 323 330 293 276
172 169 168 167 167 167 166 161 157 157 157 160 159 158 156 161 161 161 159 156 150 144 136 131 134 137 138 137 134 129 128 127 129 126 126 127 129 129 125 127 121 121 120 121 121 123 127 135 143 160 158 157 145 132 141 82 93 70 85 101 75 51 47 2 333 82 336 77 321 318 320 328 324 352 329 319 323 342 327 332 328 316 309 285 281
177 175 173 171 169 168 166 163 162 162 160 162 160 157 161 162 155 152 144 139 136 136 137 137 139 134 128 120 118 123 127 130 131 129 127 130 131 125 125 122 131 124 124 124 127 140 147 156 161 156 151 139 136 139 108 84 88 97 105 84 49 67 45 13 353 349 336 315 340 342 313 316 306 348 326 329 337 325 325 325 314 308 299 292 282
181 178 173 171 170 165 159 156 151 147 154 157 162 165 163 156 158 155 150 148 143 145 139 142 134 133 132 133 134 131 128 125 122 121 123 124 122 122 127 134 121 126 131 129 137 149 152 151 138 122 121 124 110 91 78 86 99 97 102 112 40 61 50 343 23 345 344 15 4 335 312 305 318 2 321 325 321 308 315 320 314 314 306 305 319
183 178 172 169 167 160 152 145 147 152 163 164 163 161 165 166 161 151 147 153 149 149 146 144 137 138 138 135 133 130 128 126 125 124 124 126 129 132 134 126 128 141 138 143 147 155 137 126 118 125 126 120 112 105 91 82 87 61 38 83 88 51 40 1 21 354 342 346 353 338 318 320 320 358 329 325 311 316 313 308 307 313 314 313 303
181 178 174 172 170 165 162 161 164 167 167 164 167 171 169 165 158 158 153 160 154 151 147 144 141 141 140 136 133 134 134 133 130 133 133 137 135 131 134 134 141 151 147 143 145 138 136 132 133 130 118 109 105 97 82 81 54 73 50 16 18 48 26 5 356 318 322 324 359 341 317 316 334 355 324 309 313 310 307 320 321 327 309 297 292
180 178 165 164 161 153 155 166 168 172 175 176 170 167 165 169 165 158 161 159 154 152 147 143 143 142 142 138 139 140 138 141 139 143 143 144 140 139 142 142 149 144 132 127 129 139 135 137 132 123 117 111 88 81 60 71 85 68 36 2 347 358 329 300 303 302 308 335 309 320 303 316 324 324 306 310 301 302 323 322 312 297 293 291 290
173 176 170 159 159 169 178 176 175 175 173 170 172 175 171 172 168 164 161 159 154 153 149 151 150 148 149 146 148 149 148 149 146 146 150 148 148 152 156 155 145 137 135 132 137 142 138 131 126 124 118 109 106 94 80 41 54 60 144 275 284 284 298 281 272 271 284 289 289 275 281 303 312 301 296 295 293 301 295 299 291 287 284 279 278
177 170 159 175 182 174 170 178 177 179 177 174 175 175 174 173 174 165 161 162 163 154 155 153 156 153 155 154 154 155 158 157 156 156 158 157 154 157 151 146 144 145 147 148 149 150 143 135 127 123 117 113 112 114 110 146 204 332 337 284 255 249 257 273 277 274 267 271 264 268 267 269 277 275 272 272 277 282 287 286 291 291 290 293 292
177 177 177 162 162 183 184 178 180 177 177 178 176 177 177 174 173 173 168 163 162 158 159 159 162 160 158 161 161 165 164 163 163 162 159 156 155 152 148 149 150 150 149 150 149 142 143 134 136 121 117 118 113 119 152 193 200 225 226 234 251 261 258 257 258 254 262 263 264 260 259 252 254 255 263 263 269 276 277 282 293 305 307 306 300
161 158 167 181 188 179 176 182 178 180 175 177 180 181 180 178 176 173 170 165 165 162 164 166 165 164 166 168 168 167 167 167 163 159 159 155 151 151 150 149 146 153 152 152 153 146 145 135 133 129 125 117 122 146 196 204 198 199 225 253 241 240 250 270 275 285 279 275 274 274 264 258 248 252 253 261 262 274 276 283 279 291 294 294 294
172 181 183 183 181 186 183 180 181 172 178 180 179 181 177 179 177 177 172 174 167 163 169 170 169 170 174 168 166 169 168 168 165 160 158 157 154 151 150 150 154 154 151 151 151 148 143 141 131 129 132 135 153 175 190 171 144 312 330 237 273 282 291 274 279 283 283 279 277 273 271 267 260 257 260 264 261 264 274 279 276 260 271 278 286
181 185 188 190 190 181 181 176 176 183 182 182 182 183 183 180 181 179 176 174 164 172 172 174 176 177 169 168 171 171 172 172 167 165 164 159 154 152 153 157 160 155 148 148 147 151 151 149 148 149 159 166 168 175 188 181 193 190 234 252 275 277 267 269 271 281 282 279 276 270 272 273 276 277 277 279 280 283 283 281 276 247 253 266 270
188 187 191 189 182 180 176 182 188 188 188 186 185 182 179 183 182 179 180 176 169 173 176 177 180 175 172 169 169 177 174 176 171 162 158 157 158 156 159 161 158 157 155 153 152 155 161 156 158 164 171 176 177 181 202 209 221 226 209 205 220 246 260 273 275 272 273 278 277 272 267 271 277 286 293 289 290 292 295 294 292 288 284 280 283
192 194 184 178 182 184 187 192 193 190 184 181 181 181 180 189 182 181 179 168 173 177 178 181 179 176 175 174 176 176 178 176 168 170 163 161 158 160 166 166 162 160 159 151 160 168 162 162 162 169 181 183 182 193 207 214 224 231 226 200 199 232 252 255 261 263 270 275 276 279 279 279 277 276 278 287 294 294 294 293 293 291 289 285 282
191 187 186 187 189 191 193 193 185 183 185 189 178 175 188 185 181 179 162 173 179 180 179 181 183 181 180 179 177 179 180 175 176 169 163 159 164 169 169 169 176 167 151 164 175 167 172 168 167 178 189 193 187 208 210 216 227 234 238 230 178 239 248 254 259 266 269 274 282 286 285 277 283 294 302 303 289 284 284 289 294 301 309 308 301
188 185 187 191 185 186 187 186 187 185 182 171 173 182 183 174 171 162 173 179 177 184 184 187 186 186 181 181 181 179 180 178 171 167 165 169 172 182 179 174 157 155 165 171 178 176 175 176 178 183 190 194 195 208 218 223 229 234 237 235 180 241 250 252 257 261 265 269 276 280 282 290 297 310 302 296 294 287 289 297 303 301 294 292 289
175 178 184 182 179 171 165 166 175 173 169 167 179 176 162 167 171 174 179 179 183 184 190 192 191 186 181 183 181 179 180 175 171 169 170 178 183 177 174 175 171 176 177 182 182 183 188 181 183 180 181 197 202 210 221 226 229 234 235 238 218 241 245 252 256 255 258 259 264 269 280 284 283 279 271 281 279 275 277 279 277 274 270 267 259
180 177 177 171 173 173 173 182 171 162 169 172 178 166 165 176 169 176 176 181 181 189 197 194 190 185 186 184 177 178 179 175 172 174 178 186 185 183 180 175 171 178 176 160 187 180 187 188 185 177 182 202 211 215 221 229 234 233 235 218 228 239 244 251 253 253 255 256 255 259 269 267 266 268 278 285 286 284 277 279 278 271 267 265 262
168 166 171 166 156 162 175 158 158 166 166 175 166 163 165 161 170 178 173 178 182 193 197 191 188 189 188 182 179 179 181 180 177 179 188 190 185 186 179 167 172 181 180 188 192 192 187 182 185 185 191 205 202 223 228 232 234 232 226 177 219 231 241 242 251 257 258 255 250 251 252 257 263 261 274 281 284 285 281 271 269 274 272 270 270
134 120 123 131 134 130 142 150 158 162 165 156 156 157 156 162 170 171 172 181 185 198 191 185 191 191 189 186 187 183 183 184 181 189 193 194 188 183 183 176 180 183 192 196 184 182 186 183 186 196 194 196 208 216 226 233 233 230 219 188 205 221 239 245 250 250 247 249 248 263 263 256 255 251 269 275 276 278 268 268 275 282 280 276 278
135 139 136 135 140 141 140 132 139 149 159 151 151 149 152 163 168 172 175 183 195 194 185 192 198 194 191 188 186 185 186 186 190 196 191 187 187 188 182 176 186 183 191 169 175 181 188 190 192 193 195 196 203 219 228 236 235 232 224 175 196 203 232 241 246 249 245 238 248 259 267 264 259 259 268 273 278 283 281 278 276 274 277 283 291
108 104 127 131 127 117 126 143 156 165 152 145 146 150 160 164 174 166 177 195 199 195 199 199 191 185 185 187 186 188 190 189 197 195 188 192 178 161 171 179 185 180 176 176 179 183 188 201 186 180 201 196 194 216 229 238 238 233 225 194 176 208 229 238 238 241 242 243 240 241 255 266 269 271 274 279 283 285 285 278 270 275 294 301 314
129 131 126 129 142 150 160 166 164 154 149 148 146 149 166 170 166 174 197 206 203 194 188 186 179 181 185 188 187 188 192 197 193 190 182 174 174 178 169 173 178 173 168 175 183 187 189 199 189 190 189 209 198 211 232 235 237 232 225 215 193 215 224 228 231 239 241 246 245 244 239 257 266 272 277 281 284 286 284 288 319 323 306 303 309
103 128 133 133 133 126 123 127 143 148 147 149 150 159 171 163 173 196 213 205 172 181 177 173 180 188 190 188 191 194 191 190 181 163 168 182 182 169 174 173 168 172 180 188 183 187 193 201 200 196 197 204 210 212 218 238 235 231 225 221 206 213 220 223 230 233 237 237 243 243 233 254 270 275 274 280 282 289 304 325 316 305 303 306 310
133 128 143 139 137 143 151 150 146 147 149 152 150 160 167 173 185 215 206 166 182 171 174 180 184 188 192 192 191 185 186 178 177 177 174 180 168 165 168 164 168 177 183 188 190 188 192 207 213 216 210 206 206 216 218 220 232 229 226 224 223 222 224 223 220 228 231 240 237 240 256 268 269 272 275 279 296 311 323 316 306 307 310 313 323
142 148 152 147 137 141 140 143 142 148 152 156 157 162 172 179 213 216 157 170 168 176 169 179 189 193 188 191 190 188 181 175 175 169 170 165 171 171 166 174 174 176 182 191 197 190 197 210 216 223 213 210 207 204 223 223 224 230 228 226 227 229 227 223 230 238 235 245 247 247 245 258 266 268 279 300 310 315 309 308 308 309 316 326 342
154 160 156 150 151 150 141 137 144 151 160 166 170 162 175 197 226 165 181 176 178 166 172 183 189 189 187 180 165 174 177 173 171 166 170 175 170 164 173 184 173 183 186 196 202 189 203 212 214 221 218 208 201 200 210 226 225 226 228 228 228 230 233 234 236 232 229 228 244 251 257 259 264 277 298 311 317 309 304 301 306 313 326 2 331
126 133 152 148 126 127 136 142 153 164 162 167 179 167 175 219 175 166 179 168 166 168 179 193 188 182 177 158 165 170 166 170 171 184 185 181 177 179 183 178 182 195 195 199 201 196 207 207 218 222 215 204 192 192 205 215 227 228 230 230 230 231 234 236 238 244 246 250 252 254 255 264 277 301 315 335 253 280 297 303 308 316 318 301 293
161 163 142 133 131 137 155 161 178 200 179 179 183 202 214 187 144 163 147 153 167 185 193 186 186 180 168 166 176 181 176 172 177 176 179 176 175 179 181 182 189 193 199 204 204 200 206 208 216 216 206 190 191 195 200 205 214 220 225 229 234 238 237 238 240 241 249 256 262 261 256 251 262 283 291 300 302 305 306 299 277 264 265 266 279
133 143 145 135 151 164 172 176 197 205 190 186 192 212 214 166 69 111 133 140 164 184 200 211 202 182 181 182 187 178 174 182 193 184 186 190 188 185 190 197 192 195 193 203 201 205 206 205 208 198 186 192 204 201 201 196 202 206 213 216 222 226 226 226 233 229 226 244 240 239 249 55 36 4 318 309 281 266 260 267 267 267 272 274 272
144 160 162 169 174 179 190 184 210 195 176 184 206 207 145 164 138 106 120 138 167 173 181 192 168 164 188 174 183 177 188 184 193 208 231 219 197 199 211 228 246 211 215 207 204 214 214 208 189 183 182 202 207 212 215 198 198 200 199 203 211 213 213 216 218 226 234 206 169 212 194 248 235 244 251 262 271 275 272 264 275 285 276 271 277
158 137 156 153 171 182 184 198 205 179 171 173 174 172 161 154 140 130 124 140 157 155 182 201 169 173 172 158 182 188 179 180 182 201 224 273 270 223 218 221 251 247 229 233 222 222 212 186 197 213 189 196 207 214 200 208 212 215 216 213 214 216 218 212 218 235 234 171 200 183 210 213 231 232 245 249 254 253 264 277 272 267 275 284 279
156 140 159 184 194 167 179 196 175 87 83 98 96 114 119 130 135 149 151 166 166 185 198 201 182 197 187 183 180 190 190 189 188 184 197 216 255 288 249 236 231 231 241 242 238 235 220 204 196 214 226 223 219 205 208 212 218 221 222 223 224 224 227 229 231 236 219 187 188 200 207 213 228 227 237 242 242 245 251 259 267 265 260 264 276